Temp
13 13 13 13 13 13 13 12 11 11 10 9 9 8 7 7 6 4 3 3 3 3 3 3 3 4 4
12 12 13 13 13 12 11 11 10 10 9 8 7 7 7 6 4 4 4 3 2 2 2 2 2 3 3
11 12 12 12 11 11 10 9 8 8 8 7 6 7 6 4 4 4 4 2 2 1 1 1 1 1 1
11 11 11 10 9 8 7 6 6 5 4 5 5 5 4 3 4 3 1 1 1 1 0 0 0 0 1
11 9 8 6 6 4 4 4 3 3 3 4 4 4 3 3 2 1 1 1 0 0 0 -0 -0 -1 -0
8 6 4 4 4 4 3 2 1 1 1 4 3 3 3 3 1 0 0 -0 -0 -1 -1 -1 -1 -1 -1
6 4 3 2 2 1 1 0 0 1 1 2 2 3 3 2 1 -0 -0 -0 -1 -1 -2 -2 -2 -2 -2
3 2 1 1 1 1 -0 0 0 -1 -1 -1 -0 0 2 1 0 0 0 -0 -2 -3 -3 -2 -2 -2 -3
1 -0 -0 -0 0 -0 -0 0 -1 -2 -2 -2 -3 -3 -1 1 -0 -0 -1 -1 -4 -4 -4 -3 -3 -3 -4
-1 -1 -2 -2 -1 -1 -1 -1 -3 -4 -4 -3 -4 -5 -5 -2 -1 -2 -2 -3 -3 -4 -4 -4 -4 -4 -5
-2 -3 -3 -3 -3 -3 -3 -3 -4 -4 -5 -5 -5 -5 -6 -6 -6 -4 -4 -4 -4 -4 -5 -5 -5 -5 -6
-3 -4 -4 -4 -4 -4 -4 -4 -5 -5 -6 -6 -6 -7 -7 -7 -6 -6 -6 -5 -6 -5 -7 -6 -5 -6 -5
-5 -5 -5 -5 -4 -4 -4 -4 -4 -5 -6 -6 -7 -7 -8 -8 -8 -8 -8 -7 -6 -7 -8 -8 -7 -7 -7
-5 -6 -6 -5 -5 -5 -5 -5 -5 -6 -6 -7 -8 -8 -8 -7 -8 -9 -7 -8 -8 -8 -9 -9 -8 -8 -8
-6 -6 -6 -6 -7 -7 -7 -8 -8 -9 -8 -8 -8 -8 -8 -8 -8 -8 -8 -8 -9 -9 -10 -9 -9 -8 -8
-6 -7 -7 -8 -8 -8 -8 -9 -9 -9 -10 -10 -10 -9 -9 -8 -8 -8 -8 -9 -9 -10 -10 -10 -9 -8 -8
-7 -7 -8 -8 -8 -9 -10 -10 -10 -10 -10 -10 -10 -11 -12 -11 -9 -9 -10 -9 -10 -10 -9 -9 -9 -9 -8
Height
825 825 826 827 828 828 826 826 825 824 822 821 819 817 814 811 808 807 805 803 802 799 796 794 789 785 782
819 819 820 821 822 821 820 820 820 819 818 817 816 814 812 810 808 806 803 800 799 797 794 790 787 782 778
814 814 815 815 816 815 815 815 815 816 813 813 812 811 808 807 806 804 801 799 798 797 793 789 784 781 776
809 807 808 808 808 810 812 814 812 812 816 814 810 809 806 805 803 802 800 798 796 794 790 787 781 777 771
802 802 802 803 804 804 806 810 810 810 809 813 807 808 807 806 802 798 799 796 794 793 788 783 777 772 768
794 796 799 800 802 803 805 805 806 807 803 806 805 804 805 801 799 797 796 794 792 788 785 780 774 768 764
792 795 798 800 801 804 805 805 805 805 807 804 802 798 800 798 796 796 795 790 787 784 779 774 770 765 761
791 793 801 802 802 803 804 804 804 804 805 803 801 799 797 796 794 794 790 787 784 779 775 771 767 763 758
785 797 792 799 798 801 802 803 805 805 804 804 803 799 796 793 793 792 788 785 780 776 773 770 766 760 753
790 796 795 800 802 799 798 802 806 805 805 802 802 801 796 793 792 790 786 783 778 773 771 768 762 755 749
796 798 798 797 802 799 801 802 805 805 805 803 802 802 801 795 789 786 785 778 774 771 768 762 758 754 746
797 798 800 801 802 800 801 802 804 803 804 803 802 801 799 796 790 785 781 776 772 769 764 758 752 748 744
798 798 798 802 801 801 803 803 802 803 803 801 801 799 797 795 790 784 780 774 772 768 761 756 749 744 736
797 800 799 800 801 803 803 802 801 802 802 800 799 796 793 790 787 783 781 778 770 766 759 753 747 743 738
799 799 798 802 803 805 803 801 803 802 800 798 796 793 790 786 783 781 777 772 767 760 755 749 745 739 734
797 800 801 802 803 802 802 802 803 802 799 796 793 788 785 783 782 778 775 769 763 758 753 747 739 735 729
797 800 801 801 801 802 803 803 801 799 798 796 793 789 786 784 780 778 774 767 761 756 751 745 737 729 724
Wind_Speed
19 20 19 19 18 18 17 16 16 16 16 16 19 20 14 16 13 10 11 16 19 16 15 17 19 20 23
22 22 24 23 21 18 17 15 12 11 14 18 17 13 15 11 10 11 16 18 14 15 17 20 21 22 23
24 26 24 19 14 13 11 10 10 14 14 11 9 12 11 6 9 14 18 12 13 16 20 21 20 22 24
25 26 22 10 8 5 2 9 11 9 6 8 11 10 5 6 11 17 8 11 15 18 20 19 23 23 24
18 5 4 4 4 1 1 8 6 4 9 16 12 10 8 14 19 12 9 12 17 20 19 23 23 26 24
7 5 5 8 3 1 2 2 1 4 15 16 7 8 14 22 16 9 8 15 20 21 21 25 25 24 25
9 8 7 4 2 1 2 1 3 7 12 8 11 13 18 17 7 7 14 21 21 23 25 24 25 23 27
9 9 4 1 0 1 1 2 2 1 8 3 10 15 21 10 4 8 24 21 23 27 24 22 21 26 26
14 8 10 3 4 5 3 5 3 2 7 10 6 18 14 6 5 15 24 22 27 24 21 21 25 28 29
14 11 9 8 7 8 8 6 2 1 10 12 9 11 7 6 10 23 17 32 26 19 20 26 27 28 31
15 12 11 10 8 9 8 6 4 1 6 9 6 10 6 9 17 16 22 29 24 18 34 32 28 27 30
15 13 11 10 9 9 7 5 3 4 5 5 4 8 9 11 9 21 29 27 22 23 35 35 32 31 26
16 14 12 9 8 8 7 7 8 5 5 6 7 9 12 14 15 21 23 23 12 36 33 33 35 31 34
16 13 10 9 10 9 9 9 5 9 9 7 8 12 16 15 19 23 22 15 29 30 32 33 32 29 30
15 13 12 9 10 8 10 11 9 11 14 14 14 16 9 13 15 15 25 26 28 33 29 28 27 29 30
14 12 11 10 9 10 10 10 10 12 15 19 20 22 18 10 5 19 22 27 30 29 28 26 26 30 32
12 10 9 9 9 9 10 10 13 15 17 17 17 19 6 5 11 14 24 30 31 29 28 26 30 34 32
Wind_Direction
259 259 263 269 276 284 280 282 271 284 286 291 301 309 320 326 329 332 339 338 334 339 344 343 340 338 335
261 265 274 281 277 270 253 254 257 267 293 301 303 315 325 332 331 331 335 340 352 352 347 343 338 334 330
260 273 274 264 251 229 214 232 277 298 293 289 303 318 320 338 330 326 334 347 349 341 341 340 336 332 330
242 250 257 238 205 185 289 317 326 339 325 322 332 334 336 325 324 327 339 343 345 341 340 338 337 334 333
242 190 142 142 142 139 55 354 4 6 345 329 343 345 354 347 339 354 347 345 343 338 337 339 339 337 337
186 173 160 148 148 127 24 36 55 264 332 319 334 341 346 347 345 16 359 345 340 339 338 337 337 339 337
176 159 157 168 161 80 19 327 286 328 326 314 338 338 341 341 8 16 348 340 345 343 335 336 337 338 335
131 122 91 139 29 337 294 298 319 111 360 299 334 328 336 337 345 340 340 341 342 336 336 335 339 335 331
111 105 115 95 96 147 82 40 66 81 9 353 341 339 331 333 304 330 335 342 338 338 338 337 332 332 328
114 124 100 83 84 88 83 81 34 131 360 2 4 5 332 306 306 330 333 340 341 348 344 335 333 333 329
131 118 109 94 83 73 61 66 62 65 2 359 339 346 320 306 312 334 329 338 343 344 341 337 333 332 327
127 109 95 94 81 69 67 54 35 20 22 10 332 348 330 304 299 316 332 340 337 337 335 334 334 333 332
125 114 105 90 82 75 63 65 92 70 2 9 353 330 322 303 292 309 327 330 337 331 333 332 331 335 335
119 113 105 87 65 57 51 43 75 14 20 12 351 344 326 320 317 314 330 319 322 328 327 329 332 327 321
125 110 91 84 66 57 51 41 32 360 356 2 358 347 338 323 313 328 326 325 326 330 327 320 320 318 320
105 99 92 83 63 53 40 28 17 3 354 352 352 354 353 343 335 322 324 323 328 326 321 317 317 318 316
102 93 80 68 53 41 24 20 11 359 346 348 354 1 345 322 308 327 317 324 321 318 319 319 313 312 314